User: anonymous   Login
Location: Mentone
(34.5413°N, 85.5351°W)
Time: 19:14:03
(UTC-05:00)
Language:

Centaur AC-72 - Orbit

View from above orbital plane
View from above orbital plane
View from above satellite
View from above satellite

Ground track
Ground track

The orbit data is extracted from the following two-line orbital elements,

1 21907U 92013B   15239.05358137  .00000038  00000-0  00000+0 0  9996
2 21907 018.9841 119.3830 6964452 128.6101 272.1135 02.25609603193379
Epoch (UTC): 27 August 2015 01:17:09
Eccentricity: 0.6964452
inclination: 18.9841°
perigee height: 1076 km
apogee height: 35280 km
right ascension of ascending node: 119.3830°
argument of perigee: 128.6101°
revolutions per day: 2.25609603
mean anomaly at epoch: 272.1135°
orbit number at epoch: 19337

The dashed part of the orbit path shows where the satellite is in the earth's shadow,  

DLR